Year,Month,Day,Hour,Minute,Value (Times are PST for temperature in C)
2016,06,17,00,00,10.40
2016,06,17,00,01,10.40
2016,06,17,00,02,10.40
2016,06,17,00,03,10.40
2016,06,17,00,04,10.40
2016,06,17,00,05,10.40
2016,06,17,00,06,10.40
2016,06,17,00,07,10.40
2016,06,17,00,08,10.40
2016,06,17,00,09,10.40
2016,06,17,00,10,10.40
2016,06,17,00,11,10.40
2016,06,17,00,12,10.40
2016,06,17,00,13,10.40
2016,06,17,00,14,10.40
2016,06,17,00,15,10.40
2016,06,17,00,16,10.40
2016,06,17,00,17,10.40
2016,06,17,00,18,10.40
2016,06,17,00,19,10.40
2016,06,17,00,20,10.40
2016,06,17,00,21,10.40
2016,06,17,00,22,10.40
2016,06,17,00,23,10.40
2016,06,17,00,24,10.30
2016,06,17,00,25,10.30
2016,06,17,00,26,10.30
2016,06,17,00,27,10.30
2016,06,17,00,28,10.30
2016,06,17,00,29,10.20
2016,06,17,00,30,10.20
2016,06,17,00,31,10.20
2016,06,17,00,32,10.10
2016,06,17,00,33,10.10
2016,06,17,00,34,10.10
2016,06,17,00,35,10.10
2016,06,17,00,36,10.00
2016,06,17,00,37,10.00
2016,06,17,00,38,10.00
2016,06,17,00,39,10.00
2016,06,17,00,40,10.00
2016,06,17,00,41,9.90
2016,06,17,00,42,9.90
2016,06,17,00,43,9.90
2016,06,17,00,44,9.90
2016,06,17,00,45,9.90
2016,06,17,00,46,9.90
2016,06,17,00,47,9.90
2016,06,17,00,48,9.90
2016,06,17,00,49,9.80
2016,06,17,00,50,9.80
2016,06,17,00,51,9.80
2016,06,17,00,52,9.80
2016,06,17,00,53,9.80
2016,06,17,00,54,9.80
2016,06,17,00,55,9.70
2016,06,17,00,56,9.70
2016,06,17,00,57,9.70
2016,06,17,00,58,9.70
2016,06,17,00,59,9.70
2016,06,17,01,00,9.70
2016,06,17,01,01,9.70
2016,06,17,01,02,9.60
2016,06,17,01,03,9.60
2016,06,17,01,04,9.60
2016,06,17,01,05,9.60
2016,06,17,01,06,9.50
2016,06,17,01,07,9.50
2016,06,17,01,08,9.50
2016,06,17,01,09,9.40
2016,06,17,01,10,9.40
2016,06,17,01,11,9.40
2016,06,17,01,12,9.40
2016,06,17,01,13,9.30
2016,06,17,01,14,9.30
2016,06,17,01,15,9.30
2016,06,17,01,16,9.30
2016,06,17,01,17,9.30
2016,06,17,01,18,9.20
2016,06,17,01,19,9.20
2016,06,17,01,20,9.20
2016,06,17,01,21,9.20
2016,06,17,01,22,9.10
2016,06,17,01,23,9.10
2016,06,17,01,24,9.10
2016,06,17,01,25,9.10
2016,06,17,01,26,9.00
2016,06,17,01,27,9.00
2016,06,17,01,28,9.00
2016,06,17,01,29,8.90
2016,06,17,01,30,8.90
2016,06,17,01,31,8.90
2016,06,17,01,32,8.90
2016,06,17,01,33,8.90
2016,06,17,01,34,8.90
2016,06,17,01,35,8.90
2016,06,17,01,36,8.90
2016,06,17,01,37,8.80
2016,06,17,01,38,8.80
2016,06,17,01,39,8.80
2016,06,17,01,40,8.80
2016,06,17,01,41,8.80
2016,06,17,01,42,8.80
2016,06,17,01,43,8.80
2016,06,17,01,44,8.80
2016,06,17,01,45,8.80
2016,06,17,01,46,8.80
2016,06,17,01,47,8.80
2016,06,17,01,48,8.70
2016,06,17,01,49,8.70
2016,06,17,01,50,8.70
2016,06,17,01,51,8.70
2016,06,17,01,52,8.70
2016,06,17,01,53,8.70
2016,06,17,01,54,8.70
2016,06,17,01,55,8.70
2016,06,17,01,56,8.70
2016,06,17,01,57,8.70
2016,06,17,01,58,8.70
2016,06,17,01,59,8.70
2016,06,17,02,00,8.70
2016,06,17,02,01,8.70
2016,06,17,02,02,8.70
2016,06,17,02,03,8.70
2016,06,17,02,04,8.70
2016,06,17,02,05,8.70
2016,06,17,02,06,8.70
2016,06,17,02,07,8.70
2016,06,17,02,08,8.70
2016,06,17,02,09,8.60
2016,06,17,02,10,8.60
2016,06,17,02,11,8.60
2016,06,17,02,12,8.60
2016,06,17,02,13,8.60
2016,06,17,02,14,8.60
2016,06,17,02,15,8.60
2016,06,17,02,16,8.60
2016,06,17,02,17,8.50
2016,06,17,02,18,8.50
2016,06,17,02,19,8.50
2016,06,17,02,20,8.50
2016,06,17,02,21,8.40
2016,06,17,02,22,8.40
2016,06,17,02,23,8.40
2016,06,17,02,24,8.40
2016,06,17,02,25,8.40
2016,06,17,02,26,8.40
2016,06,17,02,27,8.30
2016,06,17,02,28,8.30
2016,06,17,02,29,8.30
2016,06,17,02,30,8.30
2016,06,17,02,31,8.30
2016,06,17,02,32,8.20
2016,06,17,02,33,8.20
2016,06,17,02,34,8.20
2016,06,17,02,35,8.20
2016,06,17,02,36,8.20
2016,06,17,02,37,8.10
2016,06,17,02,38,8.10
2016,06,17,02,39,8.10
2016,06,17,02,40,8.10
2016,06,17,02,41,8.10
2016,06,17,02,42,8.10
2016,06,17,02,43,8.00
2016,06,17,02,44,8.00
2016,06,17,02,45,8.00
2016,06,17,02,46,7.90
2016,06,17,02,47,7.90
2016,06,17,02,48,7.90
2016,06,17,02,49,7.90
2016,06,17,02,50,7.90
2016,06,17,02,51,7.80
2016,06,17,02,52,7.80
2016,06,17,02,53,7.80
2016,06,17,02,54,7.80
2016,06,17,02,55,7.80
2016,06,17,02,56,7.80
2016,06,17,02,57,7.80
2016,06,17,02,58,7.80
2016,06,17,02,59,7.80
2016,06,17,03,00,7.80
2016,06,17,03,01,7.80
2016,06,17,03,02,7.80
2016,06,17,03,06,7.80
2016,06,17,03,07,7.80
2016,06,17,03,08,7.80
2016,06,17,03,09,7.80
2016,06,17,03,10,7.80
2016,06,17,03,11,7.80
2016,06,17,03,12,7.80
2016,06,17,03,13,7.80
2016,06,17,03,14,7.80
2016,06,17,03,15,7.80
2016,06,17,03,16,7.80
2016,06,17,03,17,7.80
2016,06,17,03,18,7.80
2016,06,17,03,19,7.80
2016,06,17,03,20,7.80
2016,06,17,03,21,7.80
2016,06,17,03,22,7.80
2016,06,17,03,23,7.80
2016,06,17,03,24,7.80
2016,06,17,03,25,7.80
2016,06,17,03,26,7.80
2016,06,17,03,27,7.80
2016,06,17,03,28,7.80
2016,06,17,03,29,7.80
2016,06,17,03,30,7.80
2016,06,17,03,31,7.80
2016,06,17,03,32,7.80
2016,06,17,03,33,7.80
2016,06,17,03,34,7.80
2016,06,17,03,35,7.80
2016,06,17,03,36,7.80
2016,06,17,03,37,7.70
2016,06,17,03,38,7.70
2016,06,17,03,39,7.70
2016,06,17,03,40,7.70
2016,06,17,03,41,7.70
2016,06,17,03,42,7.70
2016,06,17,03,43,7.70
2016,06,17,03,44,7.70
2016,06,17,03,45,7.70
2016,06,17,03,46,7.70
2016,06,17,03,47,7.70
2016,06,17,03,48,7.60
2016,06,17,03,49,7.60
2016,06,17,03,50,7.60
2016,06,17,03,51,7.60
2016,06,17,03,52,7.60
2016,06,17,03,53,7.60
2016,06,17,03,54,7.50
2016,06,17,03,55,7.50
2016,06,17,03,56,7.50
2016,06,17,03,57,7.50
2016,06,17,03,58,7.50
2016,06,17,03,59,7.50
2016,06,17,04,00,7.40
2016,06,17,04,01,7.40
2016,06,17,04,02,7.40
2016,06,17,04,03,7.40
2016,06,17,04,04,7.40
2016,06,17,04,05,7.40
2016,06,17,04,06,7.40
2016,06,17,04,07,7.30
2016,06,17,04,08,7.30
2016,06,17,04,09,7.30
2016,06,17,04,10,7.30
2016,06,17,04,11,7.30
2016,06,17,04,12,7.30
2016,06,17,04,13,7.30
2016,06,17,04,14,7.20
2016,06,17,04,15,7.20
2016,06,17,04,16,7.20
2016,06,17,04,17,7.20
2016,06,17,04,18,7.20
2016,06,17,04,19,7.20
2016,06,17,04,20,7.20
2016,06,17,04,21,7.20
2016,06,17,04,22,7.20
2016,06,17,04,23,7.20
2016,06,17,04,24,7.20
2016,06,17,04,25,7.20
2016,06,17,04,26,7.20
2016,06,17,04,27,7.10
2016,06,17,04,28,7.10
2016,06,17,04,29,7.10
2016,06,17,04,30,7.10
2016,06,17,04,31,7.10
2016,06,17,04,32,7.10
2016,06,17,04,33,7.10
2016,06,17,04,34,7.10
2016,06,17,04,35,7.10
2016,06,17,04,36,7.10
2016,06,17,04,37,7.10
2016,06,17,04,38,7.10
2016,06,17,04,39,7.10
2016,06,17,04,40,7.10
2016,06,17,04,41,7.00
2016,06,17,04,42,7.00
2016,06,17,04,43,7.00
2016,06,17,04,44,7.00
2016,06,17,04,45,7.00
2016,06,17,04,46,7.00
2016,06,17,04,47,7.00
2016,06,17,04,48,7.00
2016,06,17,04,49,6.90
2016,06,17,04,50,6.90
2016,06,17,04,51,6.90
2016,06,17,04,52,7.00
2016,06,17,04,53,7.00
2016,06,17,04,54,7.00
2016,06,17,04,55,7.00
2016,06,17,04,56,6.90
2016,06,17,04,57,6.90
2016,06,17,04,58,6.90
2016,06,17,04,59,6.90
2016,06,17,05,00,6.90
2016,06,17,05,01,6.90
2016,06,17,05,02,6.90
2016,06,17,05,03,6.80
2016,06,17,05,04,6.80
2016,06,17,05,05,6.80
2016,06,17,05,06,6.80
2016,06,17,05,07,6.80
2016,06,17,05,08,6.80
2016,06,17,05,09,6.70
2016,06,17,05,10,6.70
2016,06,17,05,11,6.70
2016,06,17,05,12,6.70
2016,06,17,05,13,6.70
2016,06,17,05,14,6.80
2016,06,17,05,15,6.80
2016,06,17,05,16,6.80
2016,06,17,05,17,6.80
2016,06,17,05,18,6.80
2016,06,17,05,19,6.90
2016,06,17,05,20,6.90
2016,06,17,05,21,6.90
2016,06,17,05,22,6.90
2016,06,17,05,23,6.90
2016,06,17,05,24,6.90
2016,06,17,05,25,6.90
2016,06,17,05,26,6.90
2016,06,17,05,27,6.90
2016,06,17,05,28,6.90
2016,06,17,05,29,6.90
2016,06,17,05,30,6.80
2016,06,17,05,31,6.80
2016,06,17,05,32,6.80
2016,06,17,05,33,6.80
2016,06,17,05,34,6.80
2016,06,17,05,35,6.80
2016,06,17,05,36,6.80
2016,06,17,05,37,6.80
2016,06,17,05,38,6.80
2016,06,17,05,39,6.80
2016,06,17,05,40,6.80
2016,06,17,05,41,6.80
2016,06,17,05,42,6.80
2016,06,17,05,43,6.80
2016,06,17,05,44,6.80
2016,06,17,05,45,6.80
2016,06,17,05,46,6.70
2016,06,17,05,47,6.80
2016,06,17,05,48,6.70
2016,06,17,05,49,6.70
2016,06,17,05,50,6.70
2016,06,17,05,51,6.70
2016,06,17,05,52,6.70
2016,06,17,05,53,6.70
2016,06,17,05,54,6.70
2016,06,17,05,55,6.70
2016,06,17,05,56,6.70
2016,06,17,05,57,6.70
2016,06,17,05,58,6.70
2016,06,17,05,59,6.70
2016,06,17,06,00,6.70
2016,06,17,06,01,6.70
2016,06,17,06,02,6.70
2016,06,17,06,03,6.70
2016,06,17,06,04,6.70
2016,06,17,06,05,6.70
2016,06,17,06,06,6.70
2016,06,17,06,07,6.70
2016,06,17,06,08,6.70
2016,06,17,06,09,6.70
2016,06,17,06,10,6.70
2016,06,17,06,11,6.70
2016,06,17,06,12,6.70
2016,06,17,06,13,6.70
2016,06,17,06,14,6.70
2016,06,17,06,15,6.70
2016,06,17,06,16,6.70
2016,06,17,06,17,6.80
2016,06,17,06,18,6.80
2016,06,17,06,19,6.80
2016,06,17,06,20,6.80
2016,06,17,06,21,6.80
2016,06,17,06,22,6.80
2016,06,17,06,23,6.80
2016,06,17,06,24,6.80
2016,06,17,06,25,6.80
2016,06,17,06,26,6.90
2016,06,17,06,27,6.90
2016,06,17,06,28,6.90
2016,06,17,06,29,6.90
2016,06,17,06,30,6.90
2016,06,17,06,31,7.00
2016,06,17,06,32,7.10
2016,06,17,06,33,7.10
2016,06,17,06,34,7.20
2016,06,17,06,35,7.20
2016,06,17,06,36,7.30
2016,06,17,06,37,7.30
2016,06,17,06,38,7.40
2016,06,17,06,39,7.40
2016,06,17,06,40,7.40
2016,06,17,06,41,7.40
2016,06,17,06,42,7.40
2016,06,17,06,43,7.50
2016,06,17,06,44,7.50
2016,06,17,06,45,7.60
2016,06,17,06,46,7.60
2016,06,17,06,47,7.70
2016,06,17,06,48,7.70
2016,06,17,06,49,7.80
2016,06,17,06,50,7.90
2016,06,17,06,51,7.90
2016,06,17,06,52,8.00
2016,06,17,06,53,8.00
2016,06,17,06,54,8.10
2016,06,17,06,55,8.20
2016,06,17,06,56,8.30
2016,06,17,06,57,8.40
2016,06,17,06,58,8.50
2016,06,17,06,59,8.60
2016,06,17,07,00,8.70
2016,06,17,07,01,8.90
2016,06,17,07,02,9.00
2016,06,17,07,03,9.10
2016,06,17,07,04,9.20
2016,06,17,07,05,9.30
2016,06,17,07,06,9.30
2016,06,17,07,07,9.30
2016,06,17,07,08,9.40
2016,06,17,07,09,9.40
2016,06,17,07,10,9.40
2016,06,17,07,11,9.40
2016,06,17,07,12,9.50
2016,06,17,07,13,9.50
2016,06,17,07,14,9.60
2016,06,17,07,15,9.60
2016,06,17,07,16,9.70
2016,06,17,07,17,9.70
2016,06,17,07,18,9.70
2016,06,17,07,19,9.70
2016,06,17,07,20,9.80
2016,06,17,07,21,9.80
2016,06,17,07,22,9.90
2016,06,17,07,23,9.90
2016,06,17,07,24,9.90
2016,06,17,07,25,10.00
2016,06,17,07,26,10.10
2016,06,17,07,27,10.20
2016,06,17,07,28,10.20
2016,06,17,07,29,10.30
2016,06,17,07,30,10.30
2016,06,17,07,31,10.30
2016,06,17,07,32,10.30
2016,06,17,07,33,10.30
2016,06,17,07,34,10.30
2016,06,17,07,35,10.30
2016,06,17,07,36,10.20
2016,06,17,07,37,10.30
2016,06,17,07,38,10.20
2016,06,17,07,39,10.30
2016,06,17,07,40,10.30
2016,06,17,07,41,10.30
2016,06,17,07,42,10.30
2016,06,17,07,43,10.30
2016,06,17,07,44,10.40
2016,06,17,07,45,10.40
2016,06,17,07,46,10.40
2016,06,17,07,47,10.40
2016,06,17,07,48,10.50
2016,06,17,07,49,10.50
2016,06,17,07,50,10.50
2016,06,17,07,51,10.50
2016,06,17,07,52,10.50
2016,06,17,07,53,10.60
2016,06,17,07,54,10.60
2016,06,17,07,55,10.70
2016,06,17,07,56,10.70
2016,06,17,07,57,10.80
2016,06,17,07,58,10.80
2016,06,17,07,59,10.80
2016,06,17,08,00,10.90
2016,06,17,08,01,10.90
2016,06,17,08,02,10.90
2016,06,17,08,03,10.80
2016,06,17,08,04,10.90
2016,06,17,08,05,10.90
2016,06,17,08,06,10.90
2016,06,17,08,07,11.00
2016,06,17,08,08,11.10
2016,06,17,08,09,11.10
2016,06,17,08,10,11.20
2016,06,17,08,11,11.20
2016,06,17,08,12,11.30
2016,06,17,08,13,11.30
2016,06,17,08,14,11.30
2016,06,17,08,15,11.30
2016,06,17,08,16,11.30
2016,06,17,08,17,11.30
2016,06,17,08,18,11.20
2016,06,17,08,19,11.20
2016,06,17,08,20,11.20
2016,06,17,08,21,11.20
2016,06,17,08,22,11.20
2016,06,17,08,23,11.20
2016,06,17,08,24,11.20
2016,06,17,08,25,11.20
2016,06,17,08,26,11.20
2016,06,17,08,27,11.30
2016,06,17,08,28,11.30
2016,06,17,08,29,11.30
2016,06,17,08,30,11.40
2016,06,17,08,31,11.40
2016,06,17,08,32,11.40
2016,06,17,08,33,11.40
2016,06,17,08,34,11.50
2016,06,17,08,35,11.60
2016,06,17,08,36,11.60
2016,06,17,08,37,11.70
2016,06,17,08,38,11.80
2016,06,17,08,39,11.90
2016,06,17,08,40,12.00
2016,06,17,08,41,12.00
2016,06,17,08,42,12.10
2016,06,17,08,43,12.20
2016,06,17,08,44,12.20
2016,06,17,08,45,12.30
2016,06,17,08,46,12.40
2016,06,17,08,47,12.50
2016,06,17,08,48,12.50
2016,06,17,08,49,12.50
2016,06,17,08,50,12.50
2016,06,17,08,51,12.40
2016,06,17,08,52,12.40
2016,06,17,08,53,12.30
2016,06,17,08,54,12.30
2016,06,17,08,55,12.30
2016,06,17,08,56,12.30
2016,06,17,08,57,12.30
2016,06,17,08,58,12.30
2016,06,17,08,59,12.30
2016,06,17,09,00,12.30
2016,06,17,09,01,12.30
2016,06,17,09,02,12.30
2016,06,17,09,03,12.40
2016,06,17,09,04,12.40
2016,06,17,09,05,12.30
2016,06,17,09,06,12.40
2016,06,17,09,07,12.40
2016,06,17,09,08,12.40
2016,06,17,09,09,12.40
2016,06,17,09,10,12.50
2016,06,17,09,11,12.50
2016,06,17,09,12,12.60
2016,06,17,09,13,12.60
2016,06,17,09,14,12.70
2016,06,17,09,15,12.70
2016,06,17,09,16,12.70
2016,06,17,09,17,12.70
2016,06,17,09,18,12.80
2016,06,17,09,19,12.80
2016,06,17,09,20,12.90
2016,06,17,09,21,12.90
2016,06,17,09,22,13.00
2016,06,17,09,23,13.10
2016,06,17,09,24,13.10
2016,06,17,09,25,13.10
2016,06,17,09,26,13.10
2016,06,17,09,27,13.10
2016,06,17,09,28,13.20
2016,06,17,09,29,13.20
2016,06,17,09,30,13.20
2016,06,17,09,31,13.30
2016,06,17,09,32,13.30
2016,06,17,09,33,13.40
2016,06,17,09,34,13.40
2016,06,17,09,35,13.50
2016,06,17,09,36,13.50
2016,06,17,09,37,13.60
2016,06,17,09,38,13.60
2016,06,17,09,39,13.70
2016,06,17,09,40,13.80
2016,06,17,09,41,13.90
2016,06,17,09,42,14.10
2016,06,17,09,43,14.20
2016,06,17,09,44,14.30
2016,06,17,09,45,14.40
2016,06,17,09,46,14.50
2016,06,17,09,47,14.60
2016,06,17,09,48,14.70
2016,06,17,09,49,14.70
2016,06,17,09,50,14.70
2016,06,17,09,51,14.70
2016,06,17,09,52,14.70
2016,06,17,09,53,14.70
2016,06,17,09,54,14.70
2016,06,17,09,55,14.60
2016,06,17,09,56,14.50
2016,06,17,09,57,14.50
2016,06,17,09,58,14.50
2016,06,17,09,59,14.50
2016,06,17,10,00,14.50
2016,06,17,10,01,14.50
2016,06,17,10,02,14.40
2016,06,17,10,03,14.40
2016,06,17,10,04,14.40
2016,06,17,10,05,14.40
2016,06,17,10,06,14.50
2016,06,17,10,07,14.60
2016,06,17,10,08,14.60
2016,06,17,10,09,14.70
2016,06,17,10,10,14.80
2016,06,17,10,11,14.80
2016,06,17,10,12,14.90
2016,06,17,10,13,15.10
2016,06,17,10,14,15.20
2016,06,17,10,15,15.20
2016,06,17,10,16,15.30
2016,06,17,10,17,15.30
2016,06,17,10,18,15.40
2016,06,17,10,19,15.50
2016,06,17,10,20,15.50
2016,06,17,10,21,15.60
2016,06,17,10,22,15.60
2016,06,17,10,23,15.60
2016,06,17,10,24,15.60
2016,06,17,10,25,15.50
2016,06,17,10,26,15.50
2016,06,17,10,27,15.50
2016,06,17,10,28,15.60
2016,06,17,10,29,15.60
2016,06,17,10,30,15.60
2016,06,17,10,31,15.70
2016,06,17,10,32,15.70
2016,06,17,10,33,15.70
2016,06,17,10,34,15.80
2016,06,17,10,35,15.80
2016,06,17,10,36,15.80
2016,06,17,10,37,15.90
2016,06,17,10,38,16.00
2016,06,17,10,39,16.00
2016,06,17,10,40,16.10
2016,06,17,10,41,16.20
2016,06,17,10,42,16.20
2016,06,17,10,43,16.30
2016,06,17,10,44,16.30
2016,06,17,10,45,16.40
2016,06,17,10,46,16.50
2016,06,17,10,47,16.50
2016,06,17,10,48,16.60
2016,06,17,10,49,16.70
2016,06,17,10,50,16.80
2016,06,17,10,51,16.80
2016,06,17,10,52,16.90
2016,06,17,10,53,17.00
2016,06,17,10,54,17.10
2016,06,17,10,55,17.20
2016,06,17,10,56,17.20
2016,06,17,10,57,17.20
2016,06,17,10,58,17.20
2016,06,17,10,59,17.20
2016,06,17,11,00,17.20
2016,06,17,11,01,17.10
2016,06,17,11,02,17.10
2016,06,17,11,03,17.20
2016,06,17,11,04,17.20
2016,06,17,11,05,17.30
2016,06,17,11,06,17.30
2016,06,17,11,07,17.30
2016,06,17,11,08,17.30
2016,06,17,11,09,17.30
2016,06,17,11,10,17.30
2016,06,17,11,11,17.30
2016,06,17,11,12,17.40
2016,06,17,11,13,17.40
2016,06,17,11,14,17.50
2016,06,17,11,15,17.50
2016,06,17,11,16,17.50
2016,06,17,11,17,17.50
2016,06,17,11,18,17.50
2016,06,17,11,19,17.50
2016,06,17,11,20,17.60
2016,06,17,11,21,17.70
2016,06,17,11,22,17.80
2016,06,17,11,23,17.90
2016,06,17,11,24,17.90
2016,06,17,11,25,18.00
2016,06,17,11,26,18.00
2016,06,17,11,27,17.90
2016,06,17,11,28,17.80
2016,06,17,11,29,17.80
2016,06,17,11,30,17.80
2016,06,17,11,31,17.80
2016,06,17,11,32,17.80
2016,06,17,11,33,17.80
2016,06,17,11,34,17.80
2016,06,17,11,35,17.80
2016,06,17,11,36,17.90
2016,06,17,11,37,18.00
2016,06,17,11,38,18.10
2016,06,17,11,39,18.20
2016,06,17,11,40,18.20
2016,06,17,11,41,18.40
2016,06,17,11,42,18.50
2016,06,17,11,43,18.60
2016,06,17,11,44,18.70
2016,06,17,11,45,18.80
2016,06,17,11,46,18.80
2016,06,17,11,47,18.70
2016,06,17,11,48,18.70
2016,06,17,11,49,18.70
2016,06,17,11,50,18.70
2016,06,17,11,51,18.80
2016,06,17,11,52,18.80
2016,06,17,11,53,18.80
2016,06,17,11,54,18.80
2016,06,17,11,55,18.80
2016,06,17,11,56,18.80
2016,06,17,11,57,18.60
2016,06,17,11,58,18.60
2016,06,17,11,59,18.60
2016,06,17,12,00,18.60
2016,06,17,12,01,18.70
2016,06,17,12,02,18.70
2016,06,17,12,03,18.70
2016,06,17,12,04,18.70
2016,06,17,12,05,18.80
2016,06,17,12,06,18.80
2016,06,17,12,07,18.80
2016,06,17,12,08,18.80
2016,06,17,12,09,18.80
2016,06,17,12,10,18.80
2016,06,17,12,11,18.80
2016,06,17,12,12,18.80
2016,06,17,12,13,18.90
2016,06,17,12,14,18.80
2016,06,17,12,15,18.80
2016,06,17,12,16,18.80
2016,06,17,12,17,18.80
2016,06,17,12,18,18.80
2016,06,17,12,19,18.80
2016,06,17,12,20,18.80
2016,06,17,12,21,18.80
2016,06,17,12,22,18.90
2016,06,17,12,23,18.90
2016,06,17,12,24,18.90
2016,06,17,12,25,18.90
2016,06,17,12,26,18.90
2016,06,17,12,27,18.90
2016,06,17,12,28,18.90
2016,06,17,12,29,18.90
2016,06,17,12,30,18.90
2016,06,17,12,31,19.10
2016,06,17,12,32,19.20
2016,06,17,12,33,19.20
2016,06,17,12,34,19.20
2016,06,17,12,35,19.20
2016,06,17,12,36,19.20
2016,06,17,12,37,19.20
2016,06,17,12,38,19.20
2016,06,17,12,39,19.20
2016,06,17,12,40,19.20
2016,06,17,12,41,19.30
2016,06,17,12,42,19.40
2016,06,17,12,43,19.40
2016,06,17,12,44,19.40
2016,06,17,12,45,19.30
2016,06,17,12,46,19.20
2016,06,17,12,47,19.20
2016,06,17,12,48,19.20
2016,06,17,12,49,19.20
2016,06,17,12,50,19.20
2016,06,17,12,51,19.30
2016,06,17,12,52,19.30
2016,06,17,12,53,19.30
2016,06,17,12,54,19.30
2016,06,17,12,55,19.40
2016,06,17,12,56,19.40
2016,06,17,12,57,19.40
2016,06,17,12,58,19.40
2016,06,17,12,59,19.40
2016,06,17,13,00,19.40
2016,06,17,13,01,19.50
2016,06,17,13,02,19.50
2016,06,17,13,03,19.50
2016,06,17,13,04,19.60
2016,06,17,13,05,19.60
2016,06,17,13,06,19.60
2016,06,17,13,07,19.60
2016,06,17,13,08,19.50
2016,06,17,13,09,19.40
2016,06,17,13,10,19.50
2016,06,17,13,11,19.60
2016,06,17,13,12,19.70
2016,06,17,13,13,19.90
2016,06,17,13,14,20.00
2016,06,17,13,15,20.20
2016,06,17,13,16,20.20
2016,06,17,13,17,20.20
2016,06,17,13,18,20.20
2016,06,17,13,19,20.20
2016,06,17,13,20,20.20
2016,06,17,13,21,20.10
2016,06,17,13,22,20.20
2016,06,17,13,23,20.20
2016,06,17,13,24,20.10
2016,06,17,13,25,20.10
2016,06,17,13,26,20.10
2016,06,17,13,27,20.10
2016,06,17,13,28,20.10
2016,06,17,13,29,20.10
2016,06,17,13,30,20.20
2016,06,17,13,31,20.20
2016,06,17,13,32,20.20
2016,06,17,13,33,20.30
2016,06,17,13,34,20.30
2016,06,17,13,35,20.30
2016,06,17,13,36,20.30
2016,06,17,13,37,20.30
2016,06,17,13,38,20.20
2016,06,17,13,39,20.20
2016,06,17,13,40,20.20
2016,06,17,13,41,20.10
2016,06,17,13,42,20.10
2016,06,17,13,43,20.10
2016,06,17,13,44,20.10
2016,06,17,13,45,20.00
2016,06,17,13,46,20.00
2016,06,17,13,47,20.00
2016,06,17,13,48,20.00
2016,06,17,13,49,20.10
2016,06,17,13,50,20.10
2016,06,17,13,51,20.00
2016,06,17,13,52,20.10
2016,06,17,13,53,20.10
2016,06,17,13,54,20.20
2016,06,17,13,55,20.20
2016,06,17,13,56,20.20
2016,06,17,13,57,20.20
2016,06,17,13,58,20.20
2016,06,17,13,59,20.10
2016,06,17,14,00,20.10
2016,06,17,14,01,20.00
2016,06,17,14,02,20.00
2016,06,17,14,03,19.90
2016,06,17,14,04,19.90
2016,06,17,14,05,19.90
2016,06,17,14,06,19.90
2016,06,17,14,07,19.90
2016,06,17,14,08,19.90
2016,06,17,14,09,19.90
2016,06,17,14,10,19.90
2016,06,17,14,11,19.90
2016,06,17,14,12,19.90
2016,06,17,14,13,20.00
2016,06,17,14,14,20.10
2016,06,17,14,15,20.30
2016,06,17,14,16,20.40
2016,06,17,14,17,20.40
2016,06,17,14,18,20.40
2016,06,17,14,19,20.50
2016,06,17,14,20,20.50
2016,06,17,14,21,20.60
2016,06,17,14,22,20.60
2016,06,17,14,23,20.60
2016,06,17,14,24,20.60
2016,06,17,14,25,20.50
2016,06,17,14,26,20.50
2016,06,17,14,27,20.60
2016,06,17,14,28,20.60
2016,06,17,14,29,20.60
2016,06,17,14,30,20.60
2016,06,17,14,31,20.60
2016,06,17,14,32,20.70
2016,06,17,14,33,20.70
2016,06,17,14,34,20.70
2016,06,17,14,35,20.70
2016,06,17,14,36,20.70
2016,06,17,14,37,20.80
2016,06,17,14,38,20.80
2016,06,17,14,39,20.90
2016,06,17,14,40,21.00
2016,06,17,14,41,21.00
2016,06,17,14,42,20.90
2016,06,17,14,43,20.80
2016,06,17,14,44,20.80
2016,06,17,14,45,20.80
2016,06,17,14,46,20.70
2016,06,17,14,47,20.70
2016,06,17,14,48,20.70
2016,06,17,14,49,20.80
2016,06,17,14,50,20.80
2016,06,17,14,51,20.80
2016,06,17,14,52,20.80
2016,06,17,14,53,20.80
2016,06,17,14,54,20.80
2016,06,17,14,55,20.90
2016,06,17,14,56,21.00
2016,06,17,14,57,21.10
2016,06,17,14,58,21.10
2016,06,17,14,59,21.10
2016,06,17,15,00,21.10
2016,06,17,15,01,21.10
2016,06,17,15,02,21.10
2016,06,17,15,03,21.00
2016,06,17,15,04,20.90
2016,06,17,15,05,20.90
2016,06,17,15,06,21.00
2016,06,17,15,07,21.00
2016,06,17,15,08,21.10
2016,06,17,15,09,21.10
2016,06,17,15,10,21.10
2016,06,17,15,11,21.10
2016,06,17,15,12,21.20
2016,06,17,15,13,21.30
2016,06,17,15,14,21.40
2016,06,17,15,15,21.40
2016,06,17,15,16,21.40
2016,06,17,15,17,21.40
2016,06,17,15,18,21.40
2016,06,17,15,19,21.50
2016,06,17,15,20,21.50
2016,06,17,15,21,21.40
2016,06,17,15,22,21.30
2016,06,17,15,23,21.20
2016,06,17,15,24,21.20
2016,06,17,15,25,21.10
2016,06,17,15,26,21.10
2016,06,17,15,27,21.20
2016,06,17,15,28,21.20
2016,06,17,15,29,21.20
2016,06,17,15,30,21.20
2016,06,17,15,31,21.20
2016,06,17,15,32,21.30
2016,06,17,15,33,21.40
2016,06,17,15,34,21.40
2016,06,17,15,35,21.30
2016,06,17,15,36,21.30
2016,06,17,15,37,21.30
2016,06,17,15,38,21.30
2016,06,17,15,39,21.30
2016,06,17,15,40,21.30
2016,06,17,15,41,21.30
2016,06,17,15,42,21.30
2016,06,17,15,43,21.20
2016,06,17,15,44,21.20
2016,06,17,15,45,21.20
2016,06,17,15,46,21.30
2016,06,17,15,47,21.20
2016,06,17,15,48,21.20
2016,06,17,15,49,21.20
2016,06,17,15,50,21.20
2016,06,17,15,51,21.20
2016,06,17,15,52,21.30
2016,06,17,15,53,21.40
2016,06,17,15,54,21.50
2016,06,17,15,55,21.60
2016,06,17,15,56,21.70
2016,06,17,15,57,21.70
2016,06,17,15,58,21.70
2016,06,17,15,59,21.70
2016,06,17,16,00,21.80
2016,06,17,16,01,21.90
2016,06,17,16,02,21.90
2016,06,17,16,03,22.00
2016,06,17,16,04,22.00
2016,06,17,16,05,22.10
2016,06,17,16,06,22.00
2016,06,17,16,07,22.00
2016,06,17,16,08,21.90
2016,06,17,16,09,21.90
2016,06,17,16,10,21.90
2016,06,17,16,11,21.80
2016,06,17,16,12,21.80
2016,06,17,16,13,21.70
2016,06,17,16,14,21.70
2016,06,17,16,15,21.60
2016,06,17,16,16,21.60
2016,06,17,16,17,21.70
2016,06,17,16,18,21.70
2016,06,17,16,19,21.70
2016,06,17,16,20,21.70
2016,06,17,16,21,21.70
2016,06,17,16,22,21.50
2016,06,17,16,23,21.50
2016,06,17,16,24,21.40
2016,06,17,16,25,21.50
2016,06,17,16,26,21.70
2016,06,17,16,27,21.80
2016,06,17,16,28,21.90
2016,06,17,16,29,21.90
2016,06,17,16,30,21.90
2016,06,17,16,31,21.90
2016,06,17,16,32,21.80
2016,06,17,16,33,21.80
2016,06,17,16,34,21.70
2016,06,17,16,35,21.60
2016,06,17,16,36,21.60
2016,06,17,16,37,21.60
2016,06,17,16,38,21.60
2016,06,17,16,39,21.60
2016,06,17,16,40,21.60
2016,06,17,16,41,21.50
2016,06,17,16,42,21.40
2016,06,17,16,43,21.40
2016,06,17,16,44,21.40
2016,06,17,16,45,21.40
2016,06,17,16,46,21.40
2016,06,17,16,47,21.40
2016,06,17,16,48,21.40
2016,06,17,16,49,21.40
2016,06,17,16,50,21.40
2016,06,17,16,51,21.40
2016,06,17,16,52,21.40
2016,06,17,16,53,21.50
2016,06,17,16,54,21.50
2016,06,17,16,55,21.50
2016,06,17,16,56,21.60
2016,06,17,16,57,21.60
2016,06,17,16,58,21.60
2016,06,17,16,59,21.60
2016,06,17,17,00,21.60
2016,06,17,17,01,21.60
2016,06,17,17,02,21.60
2016,06,17,17,03,21.50
2016,06,17,17,04,21.40
2016,06,17,17,05,21.40
2016,06,17,17,06,21.40
2016,06,17,17,07,21.40
2016,06,17,17,08,21.40
2016,06,17,17,09,21.40
2016,06,17,17,10,21.40
2016,06,17,17,11,21.40
2016,06,17,17,12,21.30
2016,06,17,17,13,21.30
2016,06,17,17,14,21.30
2016,06,17,17,15,21.30
2016,06,17,17,16,21.30
2016,06,17,17,17,21.30
2016,06,17,17,18,21.40
2016,06,17,17,19,21.40
2016,06,17,17,20,21.50
2016,06,17,17,21,21.60
2016,06,17,17,22,21.60
2016,06,17,17,23,21.50
2016,06,17,17,24,21.40
2016,06,17,17,25,21.40
2016,06,17,17,26,21.40
2016,06,17,17,27,21.40
2016,06,17,17,28,21.50
2016,06,17,17,29,21.50
2016,06,17,17,30,21.50
2016,06,17,17,31,21.50
2016,06,17,17,32,21.50
2016,06,17,17,33,21.40
2016,06,17,17,34,21.40
2016,06,17,17,35,21.40
2016,06,17,17,36,21.30
2016,06,17,17,37,21.30
2016,06,17,17,38,21.30
2016,06,17,17,39,21.30